Location: UBC Liquid-Mirror Observatory
(49.2876°N, 122.5728°W)
Time: 14:40:39
(UTC-08:00)

Amateur Radio Satellites - All Passes

Search period start: 27 February 2015 14:10
Search period end: 28 February 2015 14:10
Location: UBC Liquid-Mirror Observatory, 49.2876°N, 122.5728°W

Satellite Date Start Highest point End Downlink Frequencies (MHz)
Time Altitude Azimuth
KKS-1 27 Feb 14:15:57 14:19:41 26° 93° (E) 14:23:27 437.445
JAS-2 27 Feb 14:16:11 14:20:25 23° 55° (NE) 14:25:09 435.910
ISS 27 Feb 14:24:29 14:27:42 61° 9° (N) 14:30:56 145.825
STARS 27 Feb 14:30:43 14:34:18 24° 93° (E) 14:37:54 437.465
SWISSCUBE 27 Feb 14:34:17 14:38:57 49° 291° (WNW) 14:43:34 437.505
Gurwin Techsat 1B 27 Feb 14:36:56 14:41:51 37° 264° (W) 14:46:46 435.225
YUBILEINY 27 Feb 14:39:24 14:44:01 16° 73° (ENE) 14:49:07 435.215
BEESAT 27 Feb 14:43:39 14:48:14 44° 292° (WNW) 14:52:46 436.000
ITUPSAT 1 27 Feb 15:09:04 15:13:13 29° 296° (WNW) 15:17:18 437.325
HORYU 2 27 Feb 15:20:15 15:24:26 39° 262° (W) 15:28:36 437.375
CUTE-I 27 Feb 15:21:21 15:21:38 10° 48° (NE) 15:22:11 437.470
ITAMSAT 1 27 Feb 15:30:01 15:31:22 11° 278° (W) 15:32:24 435.822/435.867
AO-7 27 Feb 15:30:16 15:38:37 72° 254° (WSW) 15:46:59 29.400- 29.500
KKS-1 27 Feb 15:52:19 15:56:29 39° 292° (WNW) 16:00:36 437.445
JAS-2 27 Feb 15:59:28 16:04:55 73° 258° (WSW) 16:11:03 435.910
ISS 27 Feb 16:00:59 16:04:07 45° 209° (SSW) 16:07:14 145.825
M-CUBED/EXP-1 PRIME 27 Feb 16:03:45 16:07:00 23° 100° (E) 16:10:31 437.505
STARS 27 Feb 16:06:48 16:10:57 41° 292° (WNW) 16:15:03 437.465
AUBIESAT-1 27 Feb 16:08:43 16:12:00 23° 100° (E) 16:15:32 437.475
YUBILEINY 27 Feb 16:30:42 16:39:19 70° 95° (E) 16:48:05 435.215
MOZHAYETS 4 27 Feb 16:38:14 16:42:37 41° 97° (E) 16:47:01
Cubesat XI-IV 27 Feb 16:45:36 16:50:37 42° 66° (ENE) 16:55:41 437.490
CUTE-I 27 Feb 16:55:28 17:00:36 49° 68° (ENE) 17:05:49 437.470
AIST 1 27 Feb 16:58:49 17:00:00 11° 58° (ENE) 17:01:25
BEESAT 2 27 Feb 17:14:57 17:15:36 10° 110° (ESE) 17:16:29 435.950
AO-7 27 Feb 17:27:54 17:33:08 17° 277° (W) 17:37:56 29.400- 29.500
PRISM 27 Feb 17:27:57 17:29:05 11° 86° (E) 17:30:28 437.425
M-CUBED/EXP-1 PRIME 27 Feb 17:38:15 17:42:05 43° 296° (WNW) 17:46:12 437.505
AUBIESAT-1 27 Feb 17:43:11 17:47:00 43° 296° (WNW) 17:51:07 437.475
JAS-2 27 Feb 17:49:35 17:51:36 11° 282° (WNW) 17:53:18 435.910
O/OREOS (USA 219) 27 Feb 18:08:47 18:12:16 21° 46° (NE) 18:15:49 437.305
MOZHAYETS 4 27 Feb 18:15:47 18:19:43 28° 295° (WNW) 18:23:37
Cubesat XI-IV 27 Feb 18:25:59 18:30:50 33° 265° (W) 18:35:42 437.490
BEESAT 3 27 Feb 18:27:23 18:31:24 56° 124° (SE) 18:35:29 437.485
CUBESAT XI-V 27 Feb 18:27:28 18:32:01 44° 98° (E) 18:36:31 437.345
AIST 2 27 Feb 18:28:32 18:31:53 23° 116° (ESE) 18:35:20 435.215
YUBILEINY 27 Feb 18:29:15 18:37:01 33° 299° (WNW) 18:44:42 435.215
HO-68 27 Feb 18:33:25 18:39:31 32° 56° (NE) 18:45:43 435.675
AIST 1 27 Feb 18:34:06 18:38:34 82° 78° (ENE) 18:42:59
CUTE-I 27 Feb 18:36:19 18:40:58 28° 267° (W) 18:45:33 437.470
BRITE-PL 27 Feb 18:38:57 18:43:39 29° 64° (ENE) 18:48:17 437.365/2234.400
COMPASS 1 27 Feb 18:46:23 18:47:52 12° 58° (ENE) 18:49:30 437.405
AAUSAT CUBESAT 2 27 Feb 18:47:14 18:48:02 11° 57° (ENE) 18:49:02 437.432
BEESAT 2 27 Feb 18:48:59 18:53:07 77° 128° (SE) 18:57:20 435.950
STRAND 1 27 Feb 18:49:29 18:54:24 43° 98° (E) 18:59:19 437.568
PRISM 27 Feb 19:01:02 19:05:18 87° 286° (WNW) 19:09:32 437.425
GOMX 1 27 Feb 19:01:04 19:05:38 30° 65° (ENE) 19:10:05 467.674
CANX-2 27 Feb 19:04:21 19:07:46 25° 65° (ENE) 19:11:15 2200.000
SEEDS 27 Feb 19:06:50 19:09:58 21° 64° (ENE) 19:13:10 437.485
CUTE 1.7 + AOD 2 27 Feb 19:23:01 19:26:48 34° 68° (ENE) 19:30:38 437.475
CUBEBUG 2 27 Feb 19:32:59 19:35:03 13° 59° (ENE) 19:37:16 437.445
PHONESAT 2.4 27 Feb 19:42:05 19:42:46 10° 157° (SSE) 19:43:30 2401.200-2431.200
O/OREOS (USA 219) 27 Feb 19:47:36 19:52:12 67° 247° (WSW) 19:56:44 437.305
Oscar 11 27 Feb 19:47:58 19:51:14 22° 63° (ENE) 19:54:35 145.826/435.025
DOVE 4 27 Feb 19:51:11 19:56:12 54° 71° (ENE) 20:01:01 437.250
VERMONT LUNAR 27 Feb 19:59:54 20:02:05 16° 167° (SSE) 20:04:18 437.305
CUBESAT XI-V 27 Feb 20:05:18 20:09:17 27° 296° (WNW) 20:13:11 437.345
AIST 2 27 Feb 20:06:01 20:10:14 54° 314° (NW) 20:14:29 435.215
BEESAT 3 27 Feb 20:06:14 20:09:48 26° 325° (NW) 20:13:21 437.485
DX 1 27 Feb 20:06:38 20:09:45 20° 61° (ENE) 20:13:00 434.975-435.025
DELFI C3 27 Feb 20:11:44 20:15:09 27° 66° (ENE) 20:18:37 145.870
AIST 1 27 Feb 20:13:50 20:15:38 12° 277° (W) 20:17:13
BRITE-PL 27 Feb 20:16:21 20:21:55 55° 261° (W) 20:27:17 437.365/2234.400
COMPASS 1 27 Feb 20:18:48 20:22:58 87° 78° (ENE) 20:27:10 437.405
AAUSAT CUBESAT 2 27 Feb 20:18:53 20:23:01 77° 75° (ENE) 20:27:11 437.432
HO-68 27 Feb 20:19:45 20:26:51 67° 257° (WSW) 20:34:00 435.675
CINEMA 3 27 Feb 20:23:55 20:28:39 60° 73° (ENE) 20:33:13 145.822/145.860
ZACube-1 27 Feb 20:25:21 20:28:59 27° 66° (ENE) 20:32:39 437.345
FUNcube-1 27 Feb 20:25:22 20:28:58 26° 66° (ENE) 20:32:35 145.935
BEESAT 2 27 Feb 20:28:28 20:31:48 22° 328° (NNW) 20:35:06 435.950
STRAND 1 27 Feb 20:28:57 20:33:30 31° 297° (WNW) 20:37:57 437.568
UWE-3 27 Feb 20:36:30 20:40:39 40° 69° (ENE) 20:44:44 435.000/436.395/437.385
GOMX 1 27 Feb 20:38:21 20:43:36 48° 262° (W) 20:48:37 467.674
PRISM 27 Feb 20:38:22 20:40:12 12° 303° (WNW) 20:41:53 437.425
UKube-1 27 Feb 20:39:24 20:43:22 35° 67° (ENE) 20:47:23 .
CANX-2 27 Feb 20:39:36 20:43:34 38° 263° (W) 20:47:32 2200.000
SEEDS 27 Feb 20:41:30 20:45:33 46° 261° (W) 20:49:36 437.485
GONETS M04 27 Feb 20:45:37 20:51:46 23° 78° (ENE) 20:58:15
HUMSAT D 27 Feb 20:54:32 20:58:05 28° 66° (ENE) 21:01:41 437.325/437.525
CUTE 1.7 + AOD 2 27 Feb 20:59:09 21:02:48 27° 266° (W) 21:06:25 437.475
PCSat 27 Feb 21:05:53 21:10:44 35° 114° (ESE) 21:15:41 145.827
CUBEBUG 2 27 Feb 21:06:40 21:11:13 90° 77° (ENE) 21:15:39 437.445
PHONESAT 2.4 27 Feb 21:17:45 21:20:26 19° 173° (S) 21:23:07 2401.200-2431.200
Oscar 11 27 Feb 21:23:00 21:27:10 47° 261° (W) 21:31:21 145.826/435.025
50 SAT 27 Feb 21:25:10 21:28:54 39° 69° (ENE) 21:32:38 437.505
AISAT 27 Feb 21:29:35 21:33:55 50° 70° (ENE) 21:38:19 437.250
DOVE 4 27 Feb 21:30:04 21:34:15 24° 269° (W) 21:38:13 437.250
VERMONT LUNAR 27 Feb 21:36:46 21:39:20 19° 184° (S) 21:41:53 437.305
VELOX 1 27 Feb 21:40:36 21:45:02 62° 72° (ENE) 21:49:29 145.980
DX 1 27 Feb 21:41:20 21:45:40 57° 259° (W) 21:50:03 434.975-435.025
ESTCUBE 1 27 Feb 21:44:18 21:48:23 35° 67° (ENE) 21:52:33 437.505/2401.250
CUBEBUG 1 27 Feb 21:44:53 21:48:49 32° 67° (ENE) 21:52:50 437.445
DELFI C3 27 Feb 21:46:39 21:50:18 32° 265° (W) 21:53:57 145.870
AIST 2 27 Feb 21:47:03 21:49:47 16° 337° (NNW) 21:52:27 435.215
BEESAT 3 27 Feb 21:48:09 21:49:16 11° 348° (NNW) 21:50:21 437.485
UNISAT 6 27 Feb 21:56:48 21:59:48 19° 90° (E) 22:02:56 437.425
AAUSAT CUBESAT 2 27 Feb 21:57:35 21:59:18 12° 274° (W) 22:00:50 437.432
POLYITAN 1 27 Feb 21:58:06 21:59:16 11° 85° (E) 22:00:40 437.675
COMPASS 1 27 Feb 21:58:24 21:59:24 11° 275° (W) 22:00:10 437.405
POPSAT HIP 1 27 Feb 22:00:07 22:01:30 12° 85° (E) 22:03:05 437.405
FUNcube-1 27 Feb 22:01:06 22:05:13 38° 263° (W) 22:09:15 145.935
ZACube-1 27 Feb 22:01:09 22:05:17 38° 263° (W) 22:09:18 437.345
CINEMA 3 27 Feb 22:02:48 22:06:15 19° 270° (W) 22:09:30 145.822/145.860
BEESAT 2 27 Feb 22:10:57 22:11:29 10° 351° (N) 22:11:58 435.950
HO-68 27 Feb 22:12:38 22:16:10 14° 279° (W) 22:19:17 435.675
UWE-3 27 Feb 22:13:36 22:17:21 25° 267° (W) 22:20:58 435.000/436.395/437.385
UKube-1 27 Feb 22:15:49 22:19:36 28° 265° (W) 22:23:22 .
TIGRISAT 27 Feb 22:22:57 22:26:48 32° 96° (E) 22:30:40 435.000
NANOSAT C BR1 27 Feb 22:23:15 22:26:21 20° 91° (E) 22:29:31 145.865
HUMSAT D 27 Feb 22:29:58 22:33:50 33° 264° (W) 22:37:38 437.325/437.525
SPROUT 27 Feb 22:30:10 22:33:44 26° 65° (ENE) 22:37:22 437.525
ANTELSAT 27 Feb 22:34:35 22:38:40 43° 98° (E) 22:42:48 437.575/2403.000
GONETS M04 27 Feb 22:38:53 22:47:36 88° 279° (W) 22:56:22
RS-15 27 Feb 22:41:10 22:49:39 29° 105° (ESE) 22:58:35 29.354- 29.394
TISAT 1 27 Feb 22:45:14 22:49:03 32° 67° (ENE) 22:52:55 437.305
CUBEBUG 2 27 Feb 22:46:58 22:48:38 12° 275° (W) 22:50:03 437.445
PCSat 27 Feb 22:48:50 22:54:05 47° 314° (NW) 22:59:21 145.827
QB50P1 27 Feb 22:54:38 22:58:39 40° 97° (E) 23:02:39 145.935-145.965
PHONESAT 2.4 27 Feb 22:55:40 22:58:13 18° 190° (S) 23:00:45 2401.200-2431.200
QB50P2 27 Feb 22:57:17 23:01:22 43° 98° (E) 23:05:25 145.880/145.840
50 SAT 27 Feb 23:00:56 23:04:06 21° 268° (W) 23:07:10 437.505
ITUPSAT 1 27 Feb 23:07:07 23:09:19 13° 55° (NE) 23:11:43 437.325
AISAT 27 Feb 23:07:22 23:10:51 21° 269° (W) 23:14:16 437.250
DANDE 27 Feb 23:10:06 23:13:59 17° 90° (E) 23:17:36 436.750
DUCHIFAT 1 27 Feb 23:15:10 23:19:24 64° 101° (ESE) 23:23:35 145.980
VERMONT LUNAR 27 Feb 23:15:15 23:16:30 11° 200° (SSW) 23:17:42 437.305
VELOX 1 27 Feb 23:19:01 23:22:04 17° 271° (W) 23:25:00 145.980
CUBEBUG 1 27 Feb 23:21:11 23:25:11 32° 265° (W) 23:29:13 437.445
ESTCUBE 1 27 Feb 23:21:18 23:25:19 30° 265° (W) 23:29:21 437.505/2401.250
BUGSAT 1 27 Feb 23:21:41 23:25:51 57° 100° (E) 23:29:55 437.445
BEESAT 3 27 Feb 23:28:16 23:29:11 11° 11° (NNE) 23:30:09 437.485
AIST 2 27 Feb 23:29:49 23:30:08 10° 0° (N) 23:30:26 435.215
POLYITAN 1 27 Feb 23:31:39 23:35:55 85° 285° (WNW) 23:40:08 437.675
UNISAT 6 27 Feb 23:32:48 23:36:58 50° 289° (WNW) 23:41:07 437.425
POPSAT HIP 1 27 Feb 23:33:49 23:38:05 83° 286° (WNW) 23:42:18 437.405
BEESAT 2 27 Feb 23:49:56 23:51:29 12° 15° (NNE) 23:53:04 435.950
CUSAT 1 27 Feb 23:56:15 00:02:13 42° 97° (E) 00:06:51 437.405
NANOSAT C BR1 27 Feb 23:58:25 00:02:31 47° 290° (WNW) 00:06:33 145.865
TIGRISAT 27 Feb 23:59:49 00:03:32 29° 294° (WNW) 00:07:14 435.000
SPROUT 28 Feb 00:05:36 00:09:42 39° 263° (W) 00:13:48 437.525
SWISSCUBE 28 Feb 00:07:27 00:11:57 43° 68° (ENE) 00:16:31 437.505
ANTELSAT 28 Feb 00:11:52 00:15:17 23° 296° (WNW) 00:18:39 437.575/2403.000
BEESAT 28 Feb 00:16:36 00:21:10 48° 69° (ENE) 00:25:48 436.000
TISAT 1 28 Feb 00:21:05 00:24:53 30° 265° (W) 00:28:40 437.305
Oscar 19 28 Feb 00:25:02 00:27:36 14° 85° (E) 00:30:24 437.125/150
QB50P1 28 Feb 00:30:54 00:34:23 24° 296° (WNW) 00:37:47 145.935-145.965
QB50P2 28 Feb 00:33:41 00:37:04 23° 296° (WNW) 00:40:22 145.880/145.840
PCSat 28 Feb 00:35:24 00:38:53 17° 338° (NNW) 00:42:18 145.827
GONETS M04 28 Feb 00:39:01 00:45:56 24° 305° (NW) 00:52:37
YUBILEINY 28 Feb 00:41:05 00:43:56 12° 39° (NE) 00:47:15 435.215
ITUPSAT 1 28 Feb 00:41:44 00:46:31 79° 73° (ENE) 00:51:21 437.325
RS-15 28 Feb 00:49:49 01:00:45 90° 309° (NW) 01:11:58 29.354- 29.394
DANDE 28 Feb 00:50:09 00:57:09 88° 276° (W) 01:02:22 436.750
DUCHIFAT 1 28 Feb 00:52:04 00:54:50 17° 300° (WNW) 00:57:29 145.980
BUGSAT 1 28 Feb 00:58:02 01:00:59 18° 299° (WNW) 01:03:46 437.445
BEESAT 3 28 Feb 01:05:12 01:08:41 25° 34° (NE) 01:12:10 437.485
AIST 2 28 Feb 01:07:42 01:10:27 16° 24° (NNE) 01:13:15 435.215
POLYITAN 1 28 Feb 01:09:30 01:11:13 12° 303° (WNW) 01:12:47 437.675
POPSAT HIP 1 28 Feb 01:11:43 01:13:21 12° 303° (WNW) 01:14:46 437.405
KKS-1 28 Feb 01:18:02 01:22:13 40° 68° (ENE) 01:26:26 437.445
BEESAT 2 28 Feb 01:27:10 01:30:56 31° 38° (NE) 01:34:41 435.950
STARS 28 Feb 01:31:37 01:35:41 37° 67° (ENE) 01:39:47 437.465
SO-50 28 Feb 01:38:05 01:40:57 17° 112° (ESE) 01:44:01 436.795
CUSAT 1 28 Feb 01:39:39 01:45:09 32° 289° (WNW) 01:49:25 437.405
SWISSCUBE 28 Feb 01:45:55 01:50:00 27° 267° (W) 01:54:03 437.505
ITAMSAT 1 28 Feb 01:54:27 01:59:01 30° 94° (E) 02:03:38 435.822/435.867
BEESAT 28 Feb 01:55:24 01:59:18 24° 268° (W) 02:03:08 436.000
Oscar 19 28 Feb 02:02:38 02:07:47 89° 299° (WNW) 02:12:56 437.125/150
ITUPSAT 1 28 Feb 02:22:17 02:25:06 15° 273° (W) 02:27:44 437.325
PCSat 28 Feb 02:22:37 02:24:37 12° 4° (N) 02:26:39 145.827
YUBILEINY 28 Feb 02:35:36 02:43:58 44° 68° (ENE) 02:52:21 435.215
DANDE 28 Feb 02:36:52 02:40:56 17° 297° (WNW) 02:44:14 436.750
BEESAT 3 28 Feb 02:43:00 02:47:07 61° 236° (SW) 02:51:09 437.485
AIST 2 28 Feb 02:45:41 02:49:58 59° 46° (NE) 02:54:09 435.215
Gurwin Techsat 1B 28 Feb 02:48:11 02:53:30 66° 102° (ESE) 02:58:48 435.225
KKS-1 28 Feb 02:55:13 02:59:02 26° 267° (W) 03:02:46 437.445
M-CUBED/EXP-1 PRIME 28 Feb 02:57:10 03:00:24 53° 66° (ENE) 03:03:47 437.505
AUBIESAT-1 28 Feb 03:01:42 03:04:56 53° 66° (ENE) 03:08:19 437.475
JAS-2 28 Feb 03:03:53 03:08:17 17° 83° (E) 03:13:14 435.910
RS-15 28 Feb 03:04:17 03:14:37 43° 338° (NNW) 03:25:14 29.354- 29.394
BEESAT 2 28 Feb 03:05:16 03:09:15 43° 238° (WSW) 03:13:10 435.950
HORYU 2 28 Feb 03:07:22 03:11:14 29° 95° (E) 03:15:07 437.375
STARS 28 Feb 03:08:24 03:12:15 28° 266° (W) 03:16:04 437.465
SO-50 28 Feb 03:16:16 03:20:55 82° 311° (NW) 03:25:46 436.795
AO-7 28 Feb 03:27:26 03:34:31 31° 92° (E) 03:41:44 29.400- 29.500
ITAMSAT 1 28 Feb 03:33:43 03:38:43 44° 293° (WNW) 03:43:37 435.822/435.867
Oscar 19 28 Feb 03:43:20 03:46:31 16° 304° (NW) 03:49:33 437.125/150
MOZHAYETS 4 28 Feb 03:44:12 03:48:41 62° 73° (ENE) 03:53:14
CUBESAT XI-V 28 Feb 04:01:24 04:02:48 11° 55° (NE) 04:04:26 437.345
PCSat 28 Feb 04:06:06 04:10:11 21° 29° (NNE) 04:14:20 145.827
PRISM 28 Feb 04:21:59 04:24:30 16° 60° (ENE) 04:27:07 437.425
AIST 2 28 Feb 04:24:58 04:28:14 21° 245° (WSW) 04:31:22 435.215
Gurwin Techsat 1B 28 Feb 04:28:56 04:33:05 23° 300° (WNW) 04:37:07 435.225
YUBILEINY 28 Feb 04:32:33 04:41:03 52° 270° (W) 04:49:25 435.215
STRAND 1 28 Feb 04:32:49 04:36:02 17° 56° (NE) 04:39:24 437.568
M-CUBED/EXP-1 PRIME 28 Feb 04:34:30 04:35:51 12° 266° (W) 04:37:05 437.505
AUBIESAT-1 28 Feb 04:38:57 04:40:19 12° 266° (W) 04:41:33 437.475
HORYU 2 28 Feb 04:43:53 04:47:58 36° 293° (WNW) 04:52:01 437.375
JAS-2 28 Feb 04:47:18 04:54:29 75° 102° (ESE) 05:02:17 435.910
SO-50 28 Feb 04:58:26 05:02:13 23° 333° (NNW) 05:06:03 436.795
Cubesat XI-IV 28 Feb 05:00:52 05:02:22 11° 82° (E) 05:04:10 437.490
CUTE-I 28 Feb 05:09:53 05:12:25 14° 84° (E) 05:15:13 437.470
AO-7 28 Feb 05:19:48 05:28:06 72° 294° (WNW) 05:36:19 29.400- 29.500
RS-15 28 Feb 05:20:13 05:30:21 38° 11° (N) 05:40:56 29.354- 29.394
MOZHAYETS 4 28 Feb 05:23:17 05:26:24 17° 272° (W) 05:29:25
CUBESAT XI-V 28 Feb 05:34:48 05:39:28 68° 73° (ENE) 05:44:11 437.345
PCSat 28 Feb 05:49:07 05:54:35 73° 52° (NE) 06:00:01 145.827
PRISM 28 Feb 05:55:26 05:59:33 66° 258° (WSW) 06:03:44 437.425
STRAND 1 28 Feb 06:09:28 06:14:37 88° 253° (WSW) 06:19:51 437.568
JAS-2 28 Feb 06:33:04 06:39:07 30° 301° (WNW) 06:45:25 435.910
YUBILEINY 28 Feb 06:33:37 06:35:52 11° 292° (WNW) 06:37:28 435.215
Cubesat XI-IV 28 Feb 06:38:10 06:43:35 72° 103° (ESE) 06:48:57 437.490
SO-50 28 Feb 06:42:06 06:44:29 13° 357° (N) 06:46:53 436.795
CUTE-I 28 Feb 06:48:01 06:53:27 85° 105° (ESE) 06:58:49 437.470
GONETS M04 28 Feb 06:48:23 06:53:11 16° 46° (NE) 06:58:24
AIST 1 28 Feb 07:08:04 07:12:04 38° 92° (E) 07:16:10
AO-7 28 Feb 07:13:37 07:19:41 23° 317° (NW) 07:25:33 29.400- 29.500
CUBESAT XI-V 28 Feb 07:14:23 07:17:28 17° 273° (W) 07:20:25 437.345
PCSat 28 Feb 07:33:25 07:37:31 22° 251° (WSW) 07:41:29 145.827
RS-15 28 Feb 07:33:55 07:45:10 68° 42° (NE) 07:56:58 29.354- 29.394
HO-68 28 Feb 07:43:44 07:48:39 20° 86° (E) 07:53:49 435.675
STRAND 1 28 Feb 07:52:03 07:54:42 14° 275° (W) 07:57:08 437.568
COMPASS 1 28 Feb 08:00:43 08:01:45 11° 85° (E) 08:03:00 437.405
BRITE-PL 28 Feb 08:17:52 08:22:17 37° 95° (E) 08:26:24 437.365/2234.400
Cubesat XI-IV 28 Feb 08:19:09 08:23:13 22° 302° (WNW) 08:27:09 437.490
CANX-2 28 Feb 08:20:51 08:24:26 27° 93° (E) 08:28:05 2200.000
SEEDS 28 Feb 08:22:14 08:25:30 22° 92° (E) 08:28:50 437.485
SO-50 28 Feb 08:23:28 08:26:53 19° 21° (NNE) 08:30:23 436.795
CUTE-I 28 Feb 08:29:14 08:32:56 19° 304° (NW) 08:36:29 437.470
GOMX 1 28 Feb 08:36:40 08:40:54 37° 95° (E) 08:44:54 467.674
DUCHIFAT 1 28 Feb 08:39:08 08:40:39 12° 57° (ENE) 08:42:21 145.980
CUTE 1.7 + AOD 2 28 Feb 08:39:38 08:43:35 37° 96° (E) 08:47:34 437.475
GONETS M04 28 Feb 08:43:53 08:52:30 59° 73° (ENE) 09:01:09
BUGSAT 1 28 Feb 08:44:18 08:45:02 10° 56° (NE) 08:45:58 437.445
AIST 1 28 Feb 08:46:15 08:49:54 25° 292° (WNW) 08:53:32
POLYITAN 1 28 Feb 08:54:47 08:57:29 17° 61° (ENE) 09:00:18 437.675
CUBEBUG 2 28 Feb 08:55:27 08:57:19 13° 86° (E) 08:59:23 437.445
POPSAT HIP 1 28 Feb 08:56:39 08:59:24 17° 61° (ENE) 09:02:16 437.405
UNISAT 6 28 Feb 08:59:49 09:03:36 29° 66° (ENE) 09:07:23 437.425
Oscar 11 28 Feb 09:06:30 09:09:57 23° 92° (E) 09:13:27 145.826/435.025
NANOSAT C BR1 28 Feb 09:19:54 09:23:30 27° 65° (ENE) 09:27:09 145.865
DELFI C3 28 Feb 09:22:21 09:25:47 26° 94° (E) 09:29:15 145.870
DOVE 4 28 Feb 09:24:13 09:28:39 77° 101° (E) 09:32:51 437.250
TIGRISAT 28 Feb 09:25:43 09:29:57 49° 71° (ENE) 09:34:10 435.000
DX 1 28 Feb 09:26:24 09:29:25 18° 90° (E) 09:32:33 434.975-435.025
HO-68 28 Feb 09:30:14 09:37:29 89° 107° (ESE) 09:44:42 435.675
AAUSAT CUBESAT 2 28 Feb 09:33:30 09:37:42 83° 103° (ESE) 09:41:54 437.432
COMPASS 1 28 Feb 09:33:56 09:38:09 86° 287° (WNW) 09:42:22 437.405
ANTELSAT 28 Feb 09:37:39 09:42:01 66° 73° (ENE) 09:46:20 437.575/2403.000
FUNcube-1 28 Feb 09:45:28 09:49:04 28° 94° (E) 09:52:40 145.935
ZACube-1 28 Feb 09:45:41 09:49:19 29° 94° (E) 09:52:58 437.345
RS-15 28 Feb 09:46:40 09:57:22 48° 246° (WSW) 10:08:23 29.354- 29.394
QB50P1 28 Feb 09:51:20 09:55:30 53° 71° (ENE) 09:59:43 145.935-145.965
CINEMA 3 28 Feb 09:52:02 09:56:19 82° 103° (ESE) 10:00:28 145.822/145.860
QB50P2 28 Feb 09:54:10 09:58:23 57° 72° (ENE) 10:02:37 145.880/145.840
BRITE-PL 28 Feb 09:56:35 10:00:45 29° 296° (WNW) 10:04:36 437.365/2234.400
CANX-2 28 Feb 09:56:35 10:00:29 35° 292° (WNW) 10:04:20 2200.000
SEEDS 28 Feb 09:57:31 10:01:32 43° 290° (WNW) 10:05:32 437.485
UWE-3 28 Feb 09:58:35 10:02:37 46° 99° (E) 10:06:38 435.000/436.395/437.385
UKube-1 28 Feb 09:58:45 10:02:46 35° 97° (E) 10:06:46 .
SO-50 28 Feb 10:03:39 10:08:30 54° 44° (NE) 10:13:22 436.795
O/OREOS (USA 219) 28 Feb 10:03:40 10:08:11 64° 113° (ESE) 10:12:45 437.305
HUMSAT D 28 Feb 10:10:00 10:13:33 28° 94° (E) 10:17:08 437.325/437.525
DUCHIFAT 1 28 Feb 10:11:35 10:15:52 82° 75° (ENE) 10:20:11 145.980
GOMX 1 28 Feb 10:15:03 10:18:56 27° 296° (WNW) 10:22:34 467.674
BUGSAT 1 28 Feb 10:15:33 10:19:48 71° 74° (ENE) 10:24:06 437.445
CUTE 1.7 + AOD 2 28 Feb 10:15:51 10:19:25 26° 294° (WNW) 10:22:56 437.475
ISS 28 Feb 10:19:00 10:21:48 28° 145° (SE) 10:24:38 145.825
POLYITAN 1 28 Feb 10:28:43 10:33:00 66° 258° (WSW) 10:37:18 437.675
CUBEBUG 2 28 Feb 10:30:28 10:34:39 70° 286° (WNW) 10:38:46 437.445
POPSAT HIP 1 28 Feb 10:30:37 10:34:54 64° 258° (WSW) 10:39:11 437.405
CUSAT 1 28 Feb 10:32:00 10:34:13 21° 67° (ENE) 10:36:19 437.405
50 SAT 28 Feb 10:34:29 10:38:07 35° 97° (E) 10:41:47 437.505
UNISAT 6 28 Feb 10:36:18 10:40:22 34° 264° (W) 10:44:20 437.425
GONETS M04 28 Feb 10:41:13 10:49:03 38° 275° (W) 10:56:46
Oscar 11 28 Feb 10:42:14 10:46:20 42° 291° (WNW) 10:50:24 145.826/435.025
AISAT 28 Feb 10:52:47 10:57:13 56° 101° (E) 11:01:35 437.250
NANOSAT C BR1 28 Feb 10:55:16 10:59:16 36° 263° (W) 11:03:15 145.865
DELFI C3 28 Feb 10:57:20 11:01:04 34° 292° (WNW) 11:04:45 145.870
DX 1 28 Feb 11:01:46 11:06:04 55° 289° (WNW) 11:10:20 434.975-435.025
DOVE 4 28 Feb 11:03:23 11:05:51 15° 302° (WNW) 11:08:09 437.250
VELOX 1 28 Feb 11:03:35 11:08:04 70° 102° (ESE) 11:12:29 145.980
TIGRISAT 28 Feb 11:03:41 11:07:01 20° 269° (W) 11:10:14 435.000
CUBEBUG 1 28 Feb 11:05:38 11:09:43 35° 96° (E) 11:13:47 437.445
ESTCUBE 1 28 Feb 11:09:16 11:13:36 42° 97° (E) 11:17:57 437.505/2401.250
AAUSAT CUBESAT 2 28 Feb 11:10:45 11:12:50 13° 301° (WNW) 11:14:45 437.432
COMPASS 1 28 Feb 11:11:37 11:13:16 12° 302° (WNW) 11:14:45 437.405
ANTELSAT 28 Feb 11:16:38 11:19:20 15° 272° (W) 11:21:51 437.575/2403.000
HO-68 28 Feb 11:18:51 11:24:28 25° 308° (NW) 11:29:56 435.675
FUNcube-1 28 Feb 11:21:44 11:25:28 32° 293° (WNW) 11:29:08 145.935
ZACube-1 28 Feb 11:22:01 11:25:44 31° 293° (WNW) 11:29:23 437.345
QB50P1 28 Feb 11:28:40 11:31:45 18° 270° (W) 11:34:43 145.935-145.965
DANDE 28 Feb 11:29:25 11:32:25 77° 260° (W) 11:35:03 436.750
CINEMA 3 28 Feb 11:30:51 11:32:58 13° 302° (WNW) 11:34:54 145.822/145.860
QB50P2 28 Feb 11:31:48 11:34:43 17° 271° (W) 11:37:30 145.880/145.840
UKube-1 28 Feb 11:35:03 11:38:50 29° 295° (WNW) 11:42:34 .
UWE-3 28 Feb 11:35:46 11:38:56 21° 297° (WNW) 11:41:59 435.000/436.395/437.385
ITAMSAT 1 28 Feb 11:40:32 11:42:53 13° 53° (NE) 11:45:28 435.822/435.867
O/OREOS (USA 219) 28 Feb 11:44:28 11:48:04 22° 314° (NW) 11:51:37 437.305
SO-50 28 Feb 11:44:35 11:48:52 29° 243° (WSW) 11:53:05 436.795
Oscar 19 28 Feb 11:45:17 11:49:47 32° 64° (ENE) 11:54:21 437.125/150
HUMSAT D 28 Feb 11:45:42 11:49:23 31° 293° (WNW) 11:53:01 437.325/437.525
SPROUT 28 Feb 11:48:17 11:51:56 27° 93° (E) 11:55:37 437.525
DUCHIFAT 1 28 Feb 11:50:38 11:52:23 12° 274° (W) 11:53:56 145.980
BUGSAT 1 28 Feb 11:53:29 11:55:51 14° 273° (W) 11:58:03 437.445
ISS 28 Feb 11:54:48 11:58:02 78° 346° (NNW) 12:01:17 145.825
TISAT 1 28 Feb 12:01:22 12:05:11 32° 95° (E) 12:08:59 437.305
50 SAT 28 Feb 12:09:47 12:13:02 24° 295° (WNW) 12:16:12 437.505
CUSAT 1 28 Feb 12:15:41 12:16:52 12° 271° (W) 12:17:56 437.405
AISAT 28 Feb 12:30:10 12:33:30 20° 299° (WNW) 12:36:42 437.250
Gurwin Techsat 1B 28 Feb 12:35:01 12:39:19 26° 61° (ENE) 12:43:42 435.225
ITUPSAT 1 28 Feb 12:39:32 12:42:15 15° 87° (E) 12:45:10 437.325
VELOX 1 28 Feb 12:41:14 12:44:11 17° 301° (WNW) 12:47:00 145.980
AO-7 28 Feb 12:42:05 12:47:27 20° 40° (NE) 12:53:01 29.400- 29.500
CUBEBUG 1 28 Feb 12:42:09 12:46:02 29° 295° (WNW) 12:49:50 437.445
ESTCUBE 1 28 Feb 12:46:29 12:50:20 27° 296° (WNW) 12:54:06 437.505/2401.250
ITAMSAT 1 28 Feb 13:16:23 13:21:33 69° 72° (ENE) 13:26:48 435.822/435.867
SPROUT 28 Feb 13:24:09 13:28:08 36° 292° (WNW) 13:32:03 437.525
Oscar 19 28 Feb 13:24:12 13:29:04 41° 263° (W) 13:33:56 437.125/150
JAS-2 28 Feb 13:25:02 13:26:24 11° 43° (NE) 13:28:05 435.910
ISS 28 Feb 13:31:28 13:34:40 54° 3° (N) 13:37:52 145.825
TISAT 1 28 Feb 13:37:14 13:40:58 30° 294° (WNW) 13:44:38 437.305
SWISSCUBE 28 Feb 13:41:04 13:45:51 58° 101° (ESE) 13:50:36 437.505
BEESAT 28 Feb 13:50:10 13:54:58 65° 102° (ESE) 13:59:45 436.000
